Location: Marysville Observatory
(48.1092°N, 122.1645°W)
Time: 08:20:26
(UTC-07:00)

Amateur Radio Satellites - All Passes

Search period start: 28 July 2015 07:50
Search period end: 29 July 2015 07:50
Location: Marysville Observatory, 48.1092°N, 122.1645°W

Satellite Date Start Highest point End Downlink Frequencies (MHz)
Time Altitude Azimuth
M-CUBED/EXP-1 PRIME 28 Jul 07:58:16 08:00:46 16° 53° (NE) 08:03:30 437.505
RS-15 28 Jul 08:03:08 08:14:45 70° 239° (WSW) 08:26:45 29.354- 29.394
BEESAT 3 28 Jul 08:03:38 08:06:39 20° 33° (NNE) 08:09:42 437.485
AIST 2 28 Jul 08:20:44 08:22:16 12° 20° (NNE) 08:23:53 435.215
PRISM 28 Jul 08:23:45 08:27:01 21° 268° (W) 08:30:12 437.425
GONETS M04 28 Jul 08:29:04 08:37:23 45° 291° (WNW) 08:45:37
CUTE 1.7 + AOD 2 28 Jul 08:30:08 08:31:04 11° 84° (E) 08:32:16 437.475
AUBIESAT-1 28 Jul 08:30:54 08:34:18 27° 58° (ENE) 08:38:00 437.475
CANX-2 28 Jul 08:36:41 08:38:58 14° 87° (E) 08:41:25 2200.000
BRITE-PL 28 Jul 08:38:19 08:42:21 41° 98° (E) 08:46:36 437.365/2234.400
CUTE-I 28 Jul 08:41:34 08:46:24 36° 295° (WNW) 08:51:11 437.470
BEESAT 2 28 Jul 08:54:45 08:58:33 35° 42° (NE) 09:02:18 435.950
STRAND 1 28 Jul 08:58:48 09:01:16 13° 275° (W) 09:03:28 437.568
AO-7 28 Jul 08:59:15 09:02:28 12° 329° (NNW) 09:05:23 29.400- 29.500
AAUSAT CUBESAT 2 28 Jul 09:10:53 09:13:26 16° 88° (E) 09:16:07 437.432
GOMX 1 28 Jul 09:11:34 09:15:51 55° 100° (E) 09:20:23 467.674
Cosmos 2499 28 Jul 09:19:45 09:27:07 75° 282° (WNW) 09:35:07 435.465 / 435.565
DOVE 4 28 Jul 09:21:32 09:25:47 44° 99° (E) 09:30:18 437.250
Cubesat XI-IV 28 Jul 09:25:08 09:28:43 18° 303° (WNW) 09:32:08 437.490
CUBEBUG 2 28 Jul 09:28:07 09:30:11 13° 86° (E) 09:32:30 437.445
M-CUBED/EXP-1 PRIME 28 Jul 09:31:03 09:35:00 72° 252° (WSW) 09:39:21 437.505
HO-68 28 Jul 09:33:03 09:40:02 51° 100° (E) 09:47:01 435.675
PCSat 28 Jul 09:38:37 09:42:11 19° 107° (ESE) 09:45:56 145.827
BEESAT 3 28 Jul 09:41:00 09:45:05 78° 234° (SW) 09:49:05 437.485
ANTELSAT 28 Jul 09:43:29 09:46:50 23° 63° (ENE) 09:50:21 437.575/2403.000
TIGRISAT 28 Jul 09:43:43 09:47:00 22° 63° (ENE) 09:50:26 435.000
POLYITAN 1 28 Jul 09:47:29 09:48:24 11° 57° (ENE) 09:49:31 437.675
Oscar 11 28 Jul 09:51:32 09:54:44 20° 90° (E) 09:58:01 145.826/435.025
AIST 2 28 Jul 09:58:05 10:02:02 37° 42° (NE) 10:05:56 435.215
COMPASS 1 28 Jul 09:59:54 10:04:06 57° 100° (E) 10:08:15 437.405
YUBILEINY 28 Jul 10:01:27 10:06:07 16° 47° (NE) 10:11:13 435.215
CINEMA 3 28 Jul 10:02:55 10:07:24 54° 100° (E) 10:12:04 145.822/145.860
CUTE 1.7 + AOD 2 28 Jul 10:03:21 10:07:42 86° 285° (WNW) 10:12:00 437.475
POPSAT HIP 1 28 Jul 10:04:44 10:07:07 15° 61° (ENE) 10:09:40 437.405
AUBIESAT-1 28 Jul 10:05:09 10:08:53 37° 259° (WSW) 10:12:53 437.475
SEEDS 28 Jul 10:07:37 10:11:56 86° 103° (ESE) 10:16:12 437.485
QB50P2 28 Jul 10:10:46 10:13:34 18° 62° (ENE) 10:16:30 145.880/145.840
CANX-2 28 Jul 10:11:06 10:15:24 66° 286° (WNW) 10:19:40 2200.000
BRITE-PL 28 Jul 10:17:24 10:20:46 23° 294° (WNW) 10:24:08 437.365/2234.400
RS-15 28 Jul 10:17:36 10:25:22 19° 261° (W) 10:32:32 29.354- 29.394
HUMSAT D 28 Jul 10:30:41 10:32:56 14° 87° (E) 10:35:20 437.325/437.525
BUGSAT 1 28 Jul 10:31:42 10:34:21 17° 63° (ENE) 10:37:06 437.445
BEESAT 2 28 Jul 10:32:53 10:36:34 32° 242° (WSW) 10:40:09 435.950
UNISAT 6 28 Jul 10:33:54 10:38:11 66° 74° (ENE) 10:42:37 437.425
GONETS M04 28 Jul 10:34:39 10:37:20 11° 319° (NW) 10:39:30
QB50P1 28 Jul 10:39:11 10:42:53 31° 67° (ENE) 10:46:38 145.935-145.965
DUCHIFAT 1 28 Jul 10:39:22 10:43:00 30° 67° (ENE) 10:46:43 145.980
NANOSAT C BR1 28 Jul 10:42:09 10:45:54 33° 68° (ENE) 10:49:42 145.865
ZACube-1 28 Jul 10:42:35 10:46:52 42° 97° (E) 10:51:12 437.345
AAUSAT CUBESAT 2 28 Jul 10:45:17 10:49:26 56° 287° (WNW) 10:53:33 437.432
GOMX 1 28 Jul 10:50:38 10:53:43 19° 296° (WNW) 10:56:49 467.674
SO-50 28 Jul 10:55:31 11:00:03 45° 121° (ESE) 11:04:47 436.795
UWE-3 28 Jul 10:56:31 11:01:03 73° 102° (ESE) 11:05:40 435.000/436.395/437.385
DOVE 4 28 Jul 10:59:49 11:03:23 24° 294° (WNW) 11:07:00 437.250
DELFI C3 28 Jul 11:01:40 11:05:46 71° 102° (ESE) 11:09:48 145.870
CUBEBUG 2 28 Jul 11:02:55 11:07:29 80° 284° (WNW) 11:12:10 437.445
FUNcube-1 28 Jul 11:06:10 11:10:40 69° 102° (ESE) 11:15:13 145.935
AISAT 28 Jul 11:07:59 11:10:22 15° 88° (E) 11:12:56 437.250
O/OREOS (USA 219) 28 Jul 11:15:30 11:19:10 23° 49° (NE) 11:22:53 437.305
Cosmos 2499 28 Jul 11:17:04 11:22:07 18° 309° (NW) 11:27:05 435.465 / 435.565
ANTELSAT 28 Jul 11:19:14 11:23:22 44° 262° (W) 11:27:39 437.575/2403.000
TIGRISAT 28 Jul 11:19:20 11:23:29 45° 261° (W) 11:27:45 435.000
POLYITAN 1 28 Jul 11:19:27 11:23:39 81° 73° (ENE) 11:27:53 437.675
PCSat 28 Jul 11:19:37 11:25:02 79° 305° (NW) 11:30:31 145.827
HO-68 28 Jul 11:21:05 11:27:39 39° 300° (WNW) 11:34:08 435.675
50 SAT 28 Jul 11:23:54 11:27:03 22° 93° (E) 11:30:15 437.505
Oscar 11 28 Jul 11:26:59 11:31:12 47° 289° (WNW) 11:35:22 145.826/435.025
UKube-1 28 Jul 11:27:50 11:31:43 32° 96° (E) 11:35:36 .
CUBEBUG 1 28 Jul 11:35:33 11:38:08 16° 89° (E) 11:40:53 437.445
COMPASS 1 28 Jul 11:36:31 11:39:22 17° 298° (WNW) 11:42:07 437.405
AIST 2 28 Jul 11:36:47 11:40:33 31° 242° (WSW) 11:44:13 435.215
POPSAT HIP 1 28 Jul 11:38:22 11:42:33 66° 258° (WSW) 11:46:45 437.405
CINEMA 3 28 Jul 11:40:53 11:44:18 21° 296° (WNW) 11:47:43 145.822/145.860
CUTE 1.7 + AOD 2 28 Jul 11:41:19 11:42:59 12° 302° (WNW) 11:44:27 437.475
ESTCUBE 1 28 Jul 11:42:08 11:45:39 23° 92° (E) 11:49:14 437.505/2401.250
QB50P2 28 Jul 11:44:58 11:49:06 54° 260° (W) 11:53:16 145.880/145.840
SEEDS 28 Jul 11:45:11 11:47:07 13° 301° (WNW) 11:48:55 437.485
VELOX 1 28 Jul 11:47:15 11:51:15 33° 96° (E) 11:55:16 145.980
DX 1 28 Jul 11:48:59 11:53:16 57° 101° (E) 11:57:32 434.975-435.025
YUBILEINY 28 Jul 11:56:43 12:05:25 60° 74° (ENE) 12:14:07 435.215
HUMSAT D 28 Jul 12:04:52 12:09:10 67° 286° (WNW) 12:13:27 437.325/437.525
BUGSAT 1 28 Jul 12:05:31 12:09:29 52° 260° (W) 12:13:27 437.445
UNISAT 6 28 Jul 12:13:03 12:15:32 14° 273° (W) 12:17:54 437.425
QB50P1 28 Jul 12:15:06 12:18:46 28° 266° (W) 12:22:24 145.935-145.965
DUCHIFAT 1 28 Jul 12:15:08 12:18:49 29° 265° (W) 12:22:28 145.980
NANOSAT C BR1 28 Jul 12:18:12 12:21:47 26° 266° (W) 12:25:21 145.865
ZACube-1 28 Jul 12:19:20 12:23:02 25° 295° (WNW) 12:26:42 437.345
SPROUT 28 Jul 12:27:51 12:30:41 18° 90° (E) 12:33:39 437.525
Cosmos 2491 28 Jul 12:33:26 12:41:26 43° 87° (E) 12:49:32 435.465 / 435.565
UWE-3 28 Jul 12:34:16 12:37:06 16° 299° (WNW) 12:39:50 435.000/436.395/437.385
SO-50 28 Jul 12:36:16 12:40:46 36° 321° (NW) 12:45:19 436.795
DELFI C3 28 Jul 12:38:10 12:40:20 14° 299° (WNW) 12:42:22 145.870
AO-7 28 Jul 12:38:39 12:39:48 10° 27° (NNE) 12:41:15 29.400- 29.500
CUBEBUG 2 28 Jul 12:41:42 12:43:32 12° 302° (WNW) 12:45:11 437.445
AISAT 28 Jul 12:43:04 12:47:28 67° 287° (WNW) 12:51:51 437.250
FUNcube-1 28 Jul 12:43:39 12:46:32 17° 299° (WNW) 12:49:18 145.935
O/OREOS (USA 219) 28 Jul 12:54:27 12:58:55 52° 249° (WSW) 13:03:22 437.305
TISAT 1 28 Jul 12:56:16 12:59:27 21° 92° (E) 13:02:42 437.305
50 SAT 28 Jul 12:58:04 13:01:44 35° 291° (WNW) 13:05:22 437.505
Oscar 19 28 Jul 12:58:42 13:03:28 41° 67° (ENE) 13:08:17 437.125/150
POLYITAN 1 28 Jul 12:58:53 13:00:12 11° 274° (W) 13:01:18 437.675
AIST 1 28 Jul 13:03:45 13:08:05 66° 97° (E) 13:12:25
UKube-1 28 Jul 13:04:01 13:07:48 29° 294° (WNW) 13:11:31 .
PCSat 28 Jul 13:05:16 13:09:22 21° 328° (NNW) 13:13:25 145.827
CUBEBUG 1 28 Jul 13:10:40 13:14:56 59° 288° (WNW) 13:19:10 437.445
HO-68 28 Jul 13:12:08 13:13:34 11° 322° (NW) 13:14:41 435.675
ESTCUBE 1 28 Jul 13:18:27 13:22:45 44° 290° (WNW) 13:27:00 437.505/2401.250
VELOX 1 28 Jul 13:23:54 13:27:44 29° 294° (WNW) 13:31:31 145.980
Gurwin Techsat 1B 28 Jul 13:24:53 13:29:08 26° 62° (ENE) 13:33:29 435.225
DX 1 28 Jul 13:26:08 13:29:09 18° 299° (WNW) 13:32:05 434.975-435.025
JAS-2 28 Jul 13:28:59 13:32:29 16° 48° (NE) 13:36:27 435.910
SWISSCUBE 28 Jul 13:33:04 13:34:09 11° 84° (E) 13:35:32 437.505
Cosmos 2504 28 Jul 13:33:08 13:40:24 34° 65° (ENE) 13:48:04 435.465 / 435.565
ITUPSAT 1 28 Jul 13:50:40 13:53:19 15° 87° (E) 13:56:09 437.325
YUBILEINY 28 Jul 13:54:05 14:01:55 36° 275° (W) 14:09:35 435.215
SPROUT 28 Jul 14:02:55 14:07:07 52° 289° (WNW) 14:11:18 437.525
ITAMSAT 1 28 Jul 14:10:13 14:15:15 52° 69° (ENE) 14:20:21 435.822/435.867
SO-50 28 Jul 14:20:03 14:22:44 14° 345° (NNW) 14:25:22 436.795
AO-7 28 Jul 14:23:04 14:30:01 32° 52° (NE) 14:37:08 29.400- 29.500
Cosmos 2491 28 Jul 14:29:45 14:38:16 51° 289° (WNW) 14:46:43 435.465 / 435.565
TISAT 1 28 Jul 14:31:26 14:35:25 42° 290° (WNW) 14:39:23 437.305
Oscar 19 28 Jul 14:38:28 14:42:58 30° 266° (W) 14:47:26 437.125/150
AIST 1 28 Jul 14:43:43 14:46:17 15° 297° (WNW) 14:48:42
BEESAT 28 Jul 14:48:12 14:52:52 50° 100° (E) 14:57:31 436.000
PCSat 28 Jul 14:54:07 14:55:00 10° 353° (N) 14:55:50 145.827
Gurwin Techsat 1B 28 Jul 15:03:36 15:08:49 55° 260° (W) 15:14:04 435.225
SWISSCUBE 28 Jul 15:08:04 15:12:53 83° 104° (ESE) 15:17:40 437.505
JAS-2 28 Jul 15:10:18 15:16:15 67° 70° (ENE) 15:23:05 435.910
KKS-1 28 Jul 15:10:26 15:13:10 16° 89° (E) 15:16:04 437.445
HORYU 2 28 Jul 15:17:04 15:20:58 32° 66° (ENE) 15:24:57 437.375
Cosmos 2504 28 Jul 15:25:03 15:33:11 65° 267° (W) 15:41:38 435.465 / 435.565
ITUPSAT 1 28 Jul 15:27:01 15:31:51 74° 287° (WNW) 15:36:37 437.325
CUSAT 1 28 Jul 15:41:13 15:44:38 46° 76° (ENE) 15:49:04 437.405
ITAMSAT 1 28 Jul 15:50:49 15:55:06 25° 268° (W) 15:59:17 435.822/435.867
SO-50 28 Jul 16:03:12 16:05:19 12° 9° (N) 16:07:28 436.795
AO-7 28 Jul 16:13:48 16:22:11 78° 253° (WSW) 16:30:38 29.400- 29.500
BEESAT 28 Jul 16:26:37 16:30:26 23° 298° (WNW) 16:34:09 436.000
STARS 28 Jul 16:29:06 16:33:28 58° 101° (E) 16:37:49 437.465
Cosmos 2491 28 Jul 16:34:06 16:37:58 13° 317° (NW) 16:41:22 435.465 / 435.565
DANDE 28 Jul 16:34:46 16:37:57 72° 261° (W) 16:42:05 436.750
GONETS M04 28 Jul 16:37:38 16:44:55 30° 61° (ENE) 16:52:24
PCSat 28 Jul 16:38:19 16:40:55 13° 20° (NNE) 16:43:38 145.827
KKS-1 28 Jul 16:45:51 16:50:16 61° 288° (WNW) 16:54:40 437.445
SWISSCUBE 28 Jul 16:47:18 16:50:09 16° 302° (WNW) 16:52:52 437.505
CUTE-I 28 Jul 16:49:41 16:52:43 16° 56° (NE) 16:55:56 437.470
HORYU 2 28 Jul 16:53:36 16:57:36 31° 265° (W) 17:01:35 437.375
JAS-2 28 Jul 16:57:13 17:02:07 24° 274° (W) 17:07:22 435.910
ITUPSAT 1 28 Jul 17:07:02 17:08:58 12° 305° (NW) 17:10:42 437.325
MOZHAYETS 4 28 Jul 17:07:30 17:11:42 33° 95° (E) 17:15:54
Cosmos 2499 28 Jul 17:14:15 17:18:14 14° 47° (NE) 17:22:46 435.465 / 435.565
Cosmos 2504 28 Jul 17:19:50 17:24:02 14° 286° (WNW) 17:27:47 435.465 / 435.565
CUSAT 1 28 Jul 17:24:48 17:27:07 15° 265° (W) 17:29:36 437.405
Cubesat XI-IV 28 Jul 17:30:27 17:35:06 31° 64° (ENE) 17:39:49 437.490
SO-50 28 Jul 17:43:24 17:47:34 26° 33° (NNE) 17:51:42 436.795
STARS 28 Jul 18:06:26 18:09:32 18° 299° (WNW) 18:12:31 437.465
AO-7 28 Jul 18:10:56 18:16:33 18° 275° (W) 18:21:45 29.400- 29.500
PCSat 28 Jul 18:20:56 18:25:58 38° 44° (NE) 18:31:02 145.827
HO-68 28 Jul 18:22:13 18:25:40 15° 44° (NE) 18:29:25 435.675
CUTE-I 28 Jul 18:26:43 18:32:06 85° 76° (ENE) 18:37:31 437.470
GONETS M04 28 Jul 18:34:04 18:42:46 75° 265° (W) 18:51:26
MOZHAYETS 4 28 Jul 18:44:45 18:48:54 32° 293° (WNW) 18:52:58
GOMX 1 28 Jul 18:49:16 18:50:20 11° 59° (ENE) 18:51:36 467.674
CUBESAT XI-V 28 Jul 18:50:33 18:54:43 33° 95° (E) 18:58:55 437.345
Cosmos 2499 28 Jul 19:05:28 19:13:51 54° 73° (ENE) 19:22:32 435.465 / 435.565
Cubesat XI-IV 28 Jul 19:09:56 19:15:05 44° 262° (W) 19:20:13 437.490
STRAND 1 28 Jul 19:23:33 19:27:37 24° 91° (E) 19:31:46 437.568
SO-50 28 Jul 19:23:39 19:28:38 77° 235° (SW) 19:33:31 436.795
CUTE 1.7 + AOD 2 28 Jul 19:26:09 19:28:16 14° 60° (ENE) 19:30:32 437.475
SEEDS 28 Jul 19:30:06 19:31:49 12° 59° (ENE) 19:33:42 437.485
CANX-2 28 Jul 19:33:08 19:35:55 17° 62° (ENE) 19:38:49 2200.000
BRITE-PL 28 Jul 19:52:54 19:57:21 73° 74° (ENE) 20:01:35 437.365/2234.400
PRISM 28 Jul 20:01:17 20:05:12 40° 98° (E) 20:09:06 437.425
PCSat 28 Jul 20:04:21 20:09:31 45° 244° (WSW) 20:14:38 145.827
HO-68 28 Jul 20:05:08 20:12:02 55° 65° (ENE) 20:19:00 435.675
AAUSAT CUBESAT 2 28 Jul 20:05:09 20:08:00 18° 63° (ENE) 20:10:58 437.432
CUTE-I 28 Jul 20:09:46 20:12:59 15° 274° (W) 20:15:57 437.470
GOMX 1 28 Jul 20:23:38 20:27:56 88° 80° (E) 20:32:07 467.674
UWE-3 28 Jul 20:24:05 20:25:30 12° 58° (ENE) 20:27:05 435.000/436.395/437.385
RS-15 28 Jul 20:27:58 20:31:06 12° 94° (E) 20:35:16 29.354- 29.394
CUBESAT XI-V 28 Jul 20:28:03 20:32:08 31° 294° (WNW) 20:36:09 437.345
CUBEBUG 2 28 Jul 20:30:10 20:32:43 16° 61° (ENE) 20:35:25 437.445
DOVE 4 28 Jul 20:31:02 20:35:10 65° 74° (ENE) 20:39:18 437.250
FUNcube-1 28 Jul 20:32:52 20:33:54 11° 57° (ENE) 20:35:07 145.935
GONETS M04 28 Jul 20:33:00 20:38:13 17° 285° (WNW) 20:43:00
Oscar 11 28 Jul 20:49:44 20:53:14 25° 65° (ENE) 20:56:51 145.826/435.025
COMPASS 1 28 Jul 20:54:12 20:58:21 62° 74° (ENE) 21:02:33 437.405
Cosmos 2499 28 Jul 20:58:58 21:06:54 42° 273° (W) 21:14:56 435.465 / 435.565
CUTE 1.7 + AOD 2 28 Jul 20:59:21 21:03:38 78° 259° (WSW) 21:07:57 437.475
STRAND 1 28 Jul 21:02:10 21:07:10 51° 290° (WNW) 21:12:04 437.568
SEEDS 28 Jul 21:02:45 21:07:00 87° 252° (WSW) 21:11:18 437.485
SO-50 28 Jul 21:06:20 21:08:27 12° 251° (WSW) 21:10:19 436.795
CANX-2 28 Jul 21:07:13 21:11:26 59° 260° (W) 21:15:43 2200.000
CINEMA 3 28 Jul 21:08:29 21:12:36 73° 75° (ENE) 21:16:49 145.822/145.860
DX 1 28 Jul 21:15:25 21:16:34 11° 57° (ENE) 21:17:56 434.975-435.025
HUMSAT D 28 Jul 21:26:06 21:28:39 16° 62° (ENE) 21:31:21 437.325/437.525
VERMONT LUNAR 28 Jul 21:28:43 21:30:50 17° 168° (SSE) 21:32:59 437.305
BRITE-PL 28 Jul 21:34:25 21:36:27 13° 273° (W) 21:38:14 437.365/2234.400
PRISM 28 Jul 21:37:11 21:40:26 22° 296° (WNW) 21:43:36 437.425
AAUSAT CUBESAT 2 28 Jul 21:39:09 21:43:15 53° 260° (W) 21:47:24 437.432
ZACube-1 28 Jul 21:42:04 21:46:06 49° 71° (ENE) 21:50:15 437.345
AUBIESAT-1 28 Jul 21:43:00 21:45:16 14° 91° (E) 21:47:46 437.475
DELFI C3 28 Jul 21:51:52 21:55:54 69° 74° (ENE) 21:59:59 145.870
HO-68 28 Jul 21:53:39 22:00:07 35° 266° (W) 22:06:31 435.675
UWE-3 28 Jul 21:57:12 22:01:22 89° 77° (ENE) 22:05:40 435.000/436.395/437.385
CUBEBUG 2 28 Jul 22:04:51 22:08:59 61° 259° (W) 22:13:13 437.445
FUNcube-1 28 Jul 22:05:21 22:09:32 82° 76° (ENE) 22:13:50 145.935
AISAT 28 Jul 22:08:55 22:12:14 22° 63° (ENE) 22:15:39 437.250
50 SAT 28 Jul 22:11:21 22:14:18 21° 65° (ENE) 22:17:22 437.505
DOVE 4 28 Jul 22:11:26 22:13:30 13° 273° (W) 22:15:22 437.250
PHONESAT 2.4 28 Jul 22:19:42 22:21:03 12° 157° (SSE) 22:22:27 2401.200-2431.200
UNISAT 6 28 Jul 22:24:07 22:25:41 12° 85° (E) 22:27:30 437.425
Oscar 11 28 Jul 22:25:11 22:29:16 39° 263° (W) 22:33:21 145.826/435.025
UKube-1 28 Jul 22:25:51 22:29:56 43° 69° (ENE) 22:34:04 .
RS-15 28 Jul 22:30:32 22:41:00 56° 116° (ESE) 22:51:57 29.354- 29.394
COMPASS 1 28 Jul 22:32:01 22:34:29 15° 272° (W) 22:36:49 437.405
CUBEBUG 1 28 Jul 22:34:58 22:38:17 22° 64° (ENE) 22:41:41 437.445
ISS 28 Jul 22:36:14 22:38:20 16° 138° (SE) 22:40:29 145.825
Cosmos 2491 28 Jul 22:38:51 22:45:49 27° 58° (ENE) 22:53:00 435.465 / 435.565
M-CUBED/EXP-1 PRIME 28 Jul 22:42:44 22:47:29 55° 106° (ESE) 22:52:10 437.505
ESTCUBE 1 28 Jul 22:45:00 22:49:02 32° 67° (ENE) 22:53:06 437.505/2401.250
DX 1 28 Jul 22:47:48 22:52:08 79° 76° (ENE) 22:56:31 434.975-435.025
VELOX 1 28 Jul 22:48:03 22:52:18 47° 70° (ENE) 22:56:33 145.980
CINEMA 3 28 Jul 22:48:48 22:50:28 12° 274° (W) 22:51:55 145.822/145.860
HUMSAT D 28 Jul 22:59:53 23:03:58 60° 259° (W) 23:08:08 437.325/437.525
POLYITAN 1 28 Jul 23:03:52 23:04:35 10° 85° (E) 23:05:33 437.675
VERMONT LUNAR 28 Jul 23:04:34 23:07:00 20° 184° (S) 23:09:26 437.305
TIGRISAT 28 Jul 23:07:12 23:11:14 29° 94° (E) 23:15:21 435.000
ANTELSAT 28 Jul 23:07:17 23:11:23 30° 94° (E) 23:15:33 437.575/2403.000
AIST 1 28 Jul 23:07:38 23:11:06 24° 69° (ENE) 23:14:36
YUBILEINY 28 Jul 23:12:20 23:15:13 12° 71° (ENE) 23:18:44 435.215
AUBIESAT-1 28 Jul 23:15:51 23:20:38 87° 287° (WNW) 23:25:22 437.475
ZACube-1 28 Jul 23:19:50 23:22:48 18° 271° (W) 23:25:42 437.345
POPSAT HIP 1 28 Jul 23:20:58 23:23:30 16° 89° (E) 23:26:13 437.405
SPROUT 28 Jul 23:25:26 23:28:41 22° 64° (ENE) 23:32:03 437.525
QB50P2 28 Jul 23:27:17 23:30:18 19° 91° (E) 23:33:25 145.880/145.840
DELFI C3 28 Jul 23:29:40 23:31:31 12° 273° (W) 23:33:11 145.870
AISAT 28 Jul 23:44:17 23:48:33 47° 260° (W) 23:52:50 437.250
BUGSAT 1 28 Jul 23:44:50 23:47:27 17° 90° (E) 23:50:10 437.445
50 SAT 28 Jul 23:45:03 23:48:41 37° 263° (W) 23:52:22 437.505
FUNcube-1 28 Jul 23:45:24 23:46:35 11° 275° (W) 23:47:32 145.935
TISAT 1 28 Jul 23:51:47 23:55:13 26° 66° (ENE) 23:58:43 437.305
PHONESAT 2.4 28 Jul 23:55:32 23:58:19 22° 173° (S) 00:01:06 2401.200-2431.200
DUCHIFAT 1 28 Jul 23:55:36 23:59:26 33° 96° (E) 00:03:18 145.980
QB50P1 28 Jul 23:55:56 23:59:50 35° 96° (E) 00:03:45 145.935-145.965
UNISAT 6 28 Jul 23:58:31 00:03:12 90° 80° (E) 00:07:55 437.425
NANOSAT C BR1 28 Jul 23:58:41 00:02:37 36° 97° (E) 00:06:34 145.865
UKube-1 29 Jul 00:02:55 00:06:18 21° 268° (W) 00:09:35 .
CUBEBUG 1 29 Jul 00:10:11 00:14:24 45° 261° (W) 00:18:36 437.445
ISS 29 Jul 00:11:06 00:14:22 81° 157° (SSE) 00:17:39 145.825
M-CUBED/EXP-1 PRIME 29 Jul 00:18:02 00:21:55 25° 303° (WNW) 00:25:44 437.505
ESTCUBE 1 29 Jul 00:21:49 00:25:54 31° 265° (W) 00:29:57 437.505/2401.250
BEESAT 29 Jul 00:23:18 00:25:37 14° 57° (ENE) 00:28:07 436.000
VELOX 1 29 Jul 00:25:44 00:29:07 21° 269° (W) 00:32:23 145.980
DX 1 29 Jul 00:27:10 00:29:02 12° 273° (W) 00:30:41 434.975-435.025
BEESAT 2 29 Jul 00:30:04 00:32:55 19° 114° (ESE) 00:35:52 435.950
Cosmos 2491 29 Jul 00:35:10 00:43:55 83° 264° (W) 00:52:37 435.465 / 435.565
POLYITAN 1 29 Jul 00:36:54 00:41:11 87° 285° (WNW) 00:45:28 437.675
SWISSCUBE 29 Jul 00:41:52 00:45:22 21° 61° (ENE) 00:49:00 437.505
VERMONT LUNAR 29 Jul 00:41:53 00:43:06 12° 200° (SSW) 00:44:15 437.305
RS-15 29 Jul 00:42:44 00:53:35 57° 323° (NW) 01:04:53 29.354- 29.394
TIGRISAT 29 Jul 00:43:45 00:48:02 37° 292° (WNW) 00:52:19 435.000
ANTELSAT 29 Jul 00:43:56 00:48:12 36° 292° (WNW) 00:52:28 437.575/2403.000
AIST 1 29 Jul 00:44:57 00:48:53 35° 268° (W) 00:52:45
AUBIESAT-1 29 Jul 00:51:51 00:54:42 16° 308° (NW) 00:57:25 437.475
POPSAT HIP 1 29 Jul 00:55:36 00:59:47 58° 288° (WNW) 01:03:58 437.405
ITUPSAT 1 29 Jul 01:00:27 01:04:26 27° 64° (ENE) 01:08:31 437.325
SPROUT 29 Jul 01:00:28 01:04:33 43° 262° (W) 01:08:39 437.525
YUBILEINY 29 Jul 01:01:51 01:10:17 60° 92° (E) 01:18:52 435.215
QB50P2 29 Jul 01:02:22 01:06:29 48° 289° (WNW) 01:10:35 145.880/145.840
Oscar 19 29 Jul 01:09:16 01:10:06 10° 83° (E) 01:11:16 437.125/150
BEESAT 3 29 Jul 01:13:53 01:17:54 60° 124° (SE) 01:21:57 437.485
BUGSAT 1 29 Jul 01:19:18 01:23:13 49° 289° (WNW) 01:27:10 437.445
TISAT 1 29 Jul 01:27:01 01:30:52 35° 263° (W) 01:34:43 437.305
DUCHIFAT 1 29 Jul 01:31:32 01:35:10 27° 294° (WNW) 01:38:43 145.980
QB50P1 29 Jul 01:32:00 01:35:35 26° 294° (WNW) 01:39:07 145.935-145.965
PHONESAT 2.4 29 Jul 01:33:02 01:35:42 20° 190° (S) 01:38:21 2401.200-2431.200
O/OREOS (USA 219) 29 Jul 01:34:29 01:35:37 11° 98° (E) 01:37:00 437.305
NANOSAT C BR1 29 Jul 01:34:47 01:38:18 25° 295° (WNW) 01:41:45 145.865
UNISAT 6 29 Jul 01:36:55 01:39:22 14° 301° (WNW) 01:41:40 437.425
AIST 2 29 Jul 01:38:03 01:41:20 22° 115° (ESE) 01:44:43 435.215
ISS 29 Jul 01:47:50 01:50:59 43° 355° (N) 01:54:07 145.825
STARS 29 Jul 01:56:30 01:57:50 11° 57° (ENE) 01:59:20 437.465
BEESAT 29 Jul 01:57:59 02:02:48 86° 75° (ENE) 02:07:38 436.000
BEESAT 2 29 Jul 02:06:33 02:10:37 58° 312° (NW) 02:14:43 435.950
Cosmos 2504 29 Jul 02:10:57 02:15:29 19° 77° (ENE) 02:20:30 435.465 / 435.565
KKS-1 29 Jul 02:11:51 02:15:21 24° 64° (ENE) 02:18:56 437.445
POLYITAN 1 29 Jul 02:14:50 02:16:28 12° 302° (WNW) 02:17:56 437.675
SWISSCUBE 29 Jul 02:18:07 02:22:52 59° 259° (W) 02:27:38 437.505
ITAMSAT 1 29 Jul 02:21:04 02:23:28 14° 85° (E) 02:26:08 435.822/435.867
Cosmos 2491 29 Jul 02:33:44 02:39:34 19° 284° (WNW) 02:44:59 435.465 / 435.565
ITUPSAT 1 29 Jul 02:37:33 02:42:10 43° 262° (W) 02:46:46 437.325
Oscar 19 29 Jul 02:45:18 02:50:30 74° 102° (ESE) 02:55:42 437.125/150
BEESAT 3 29 Jul 02:52:49 02:56:10 23° 324° (NW) 02:59:30 437.485
RS-15 29 Jul 02:58:56 03:08:59 35° 355° (N) 03:19:25 29.354- 29.394
YUBILEINY 29 Jul 02:59:42 03:07:40 37° 295° (WNW) 03:15:35 435.215
O/OREOS (USA 219) 29 Jul 03:09:54 03:14:23 90° 292° (WNW) 03:18:56 437.305
AIST 2 29 Jul 03:15:28 03:19:38 52° 313° (NW) 03:23:49 435.215
Gurwin Techsat 1B 29 Jul 03:16:02 03:21:08 46° 98° (E) 03:26:14 435.225
ISS 29 Jul 03:24:29 03:27:43 58° 14° (NNE) 03:30:57 145.825
STARS 29 Jul 03:29:14 03:33:36 81° 72° (ENE) 03:38:00 437.465
BEESAT 29 Jul 03:39:06 03:41:23 13° 274° (W) 03:43:26 436.000
BEESAT 2 29 Jul 03:47:10 03:49:32 14° 334° (NNW) 03:51:50 435.950
KKS-1 29 Jul 03:47:34 03:51:47 42° 262° (W) 03:56:01 437.445
ITAMSAT 1 29 Jul 03:58:35 04:03:50 90° 289° (WNW) 04:09:01 435.822/435.867
Cosmos 2504 29 Jul 03:59:29 04:06:36 89° 277° (W) 04:14:17 435.465 / 435.565
JAS-2 29 Jul 03:59:40 04:07:09 50° 97° (E) 04:14:45 435.910
AO-7 29 Jul 04:11:53 04:18:49 29° 92° (E) 04:25:55 29.400- 29.500
MOZHAYETS 4 29 Jul 04:12:38 04:17:05 47° 70° (ENE) 04:21:34
Oscar 19 29 Jul 04:25:43 04:29:22 19° 301° (WNW) 04:32:53 437.125/150
HORYU 2 29 Jul 04:40:38 04:44:50 37° 97° (E) 04:49:02 437.375
O/OREOS (USA 219) 29 Jul 04:51:49 04:54:33 15° 317° (NW) 04:57:13 437.305
CUSAT 1 29 Jul 04:54:02 04:56:40 29° 98° (E) 04:59:03 437.405
Gurwin Techsat 1B 29 Jul 04:56:22 05:00:58 30° 297° (WNW) 05:05:29 435.225
AIST 2 29 Jul 04:56:49 04:59:10 14° 335° (NNW) 05:01:27 435.215
ISS 29 Jul 05:01:01 05:04:04 37° 214° (SW) 05:07:07 145.825
STARS 29 Jul 05:08:56 05:10:42 12° 274° (W) 05:12:16 437.465
RS-15 29 Jul 05:14:05 05:24:58 45° 27° (NNE) 05:36:24 29.354- 29.394
ITAMSAT 1 29 Jul 05:39:30 05:42:40 16° 304° (NW) 05:45:41 435.822/435.867
GONETS M04 29 Jul 05:44:40 05:51:31 28° 81° (E) 05:58:36
JAS-2 29 Jul 05:44:54 05:52:07 45° 296° (WNW) 05:59:24 435.910
MOZHAYETS 4 29 Jul 05:50:53 05:54:34 22° 269° (W) 05:58:11
DANDE 29 Jul 05:51:21 05:54:43 67° 281° (W) 05:57:30 436.750
Cosmos 2504 29 Jul 05:54:50 06:00:12 21° 304° (NW) 06:05:33 435.465 / 435.565
CUBESAT XI-V 29 Jul 05:57:07 06:01:37 49° 71° (ENE) 06:06:10 437.345
AO-7 29 Jul 06:04:06 06:12:27 74° 293° (WNW) 06:20:43 29.400- 29.500
HORYU 2 29 Jul 06:17:30 06:21:21 28° 295° (WNW) 06:25:08 437.375
CUTE-I 29 Jul 06:40:44 06:45:04 25° 92° (E) 06:49:29 437.470
STRAND 1 29 Jul 06:42:37 06:47:33 50° 69° (ENE) 06:52:32 437.568
PRISM 29 Jul 06:54:24 06:58:26 49° 71° (ENE) 07:02:31 437.425
BEESAT 2 29 Jul 07:07:49 07:09:16 12° 21° (NNE) 07:10:47 435.950
Cubesat XI-IV 29 Jul 07:23:11 07:28:28 57° 101° (E) 07:33:42 437.490
JAS-2 29 Jul 07:32:23 07:35:30 13° 316° (NW) 07:38:18 435.910
CUBESAT XI-V 29 Jul 07:35:42 07:39:22 22° 269° (W) 07:42:55 437.345
